Date String (YYYY-MM-DD hh:mm:ss) UTC,Instrument flags,Ambient pressure (hPa),Sample flow (lpm),Bypass flow (lpm),Sample temperature (°C),Ambient temperature (°C),ASC tube jacket temperature (°C),LED temperature (°C),Box temperature (°C),Sample RH (%),Span deviation,Mass concentration (μg/m³),Mass concentration (μg/m³),Mass concentration (μg/m³)
DateTimeUTC,F1_M11,P_M11,Q1_M11,Q2_M11,T1_M11,T2_M11,T3_M11,T4_M11,T5_M11,U1_M11,ZSPAN_M11,X0_M11,X2_M11,X1_M11
2021-08-21 19:00:00,,0827.0,5.00,0.00,29.6,28.5,00.0,38.6,31.5,24.7,0001.7,0025.13,0014.26,0013.46
2021-08-21 19:01:00,,0827.3,4.99,0.00,29.6,28.7,00.0,38.6,31.6,25.5,0001.5,0024.32,0014.23,0013.45
2021-08-21 19:02:00,,0827.0,5.00,0.00,29.7,28.8,00.0,38.6,31.6,25.8,0001.4,0023.78,0014.16,0013.41
2021-08-21 19:03:00,,0826.9,5.01,0.00,29.7,28.9,00.0,38.7,31.7,25.5,0001.4,0022.45,0014.15,0013.40
2021-08-21 19:04:00,,0826.9,4.99,0.00,29.8,28.7,00.0,38.7,31.6,25.0,0001.5,0021.47,0014.17,0013.41
2021-08-21 19:05:00,,0827.0,5.00,0.00,29.7,27.0,00.0,38.7,31.2,25.0,0001.7,0021.39,0014.10,0013.39
2021-08-21 19:06:00,,0826.9,5.00,0.00,29.5,25.9,00.0,38.6,30.8,25.4,0001.7,0021.31,0014.12,0013.42
2021-08-21 19:07:00,,0826.8,5.01,0.00,29.4,26.1,00.0,38.6,30.8,25.8,0001.7,0020.91,0014.19,0013.47
2021-08-21 19:08:00,,0826.8,5.00,0.00,29.4,26.6,00.0,38.6,30.9,25.6,0001.8,0020.90,0014.23,0013.49
2021-08-21 19:09:00,,0826.8,5.00,0.00,29.4,27.0,00.0,38.6,31.0,25.2,0002.0,0020.73,0014.23,0013.52
2021-08-21 19:10:00,,0826.8,4.99,0.00,29.4,27.4,00.0,38.5,31.1,24.9,0002.0,0020.72,0014.23,0013.54
2021-08-21 19:11:00,,0826.7,5.01,0.00,29.4,27.7,00.0,38.5,31.2,25.0,0002.0,0021.39,0014.30,0013.54
2021-08-21 19:12:00,,0826.8,5.00,0.00,29.5,28.0,00.0,38.5,31.3,25.3,0002.2,0021.63,0014.34,0013.58
2021-08-21 19:13:00,,0826.8,5.00,0.00,29.5,28.2,00.0,38.5,31.4,25.3,0002.4,0021.87,0014.39,0013.61
2021-08-21 19:14:00,,0826.8,5.00,0.00,29.5,28.4,00.0,38.6,31.5,25.0,0002.5,0021.91,0014.39,0013.63
2021-08-21 19:15:00,,0826.9,5.01,0.00,29.6,28.6,00.0,38.6,31.5,25.0,0002.5,0021.77,0014.38,0013.63
2021-08-21 19:16:00,,0827.0,5.00,0.00,29.7,28.7,00.0,38.6,31.6,25.3,0002.4,0021.34,0014.43,0013.63
2021-08-21 19:17:00,,0826.8,4.99,0.00,29.7,28.9,00.0,38.6,31.6,25.4,0002.3,0021.35,0014.45,0013.59
2021-08-21 19:18:00,,0827.0,5.00,0.00,29.8,28.9,00.0,38.7,31.7,25.0,0002.3,0021.39,0014.43,0013.58
2021-08-21 19:19:00,,0826.8,5.00,0.00,29.7,27.7,00.0,38.7,31.3,24.6,0002.3,0021.66,0014.43,0013.55
2021-08-21 19:20:00,,0826.8,5.00,0.00,29.6,26.1,00.0,38.6,30.8,24.7,0002.1,0022.30,0014.41,0013.53
2021-08-21 19:21:00,,0826.8,5.00,0.00,29.4,26.0,00.0,38.6,30.8,25.5,0002.3,0022.29,0014.44,0013.53
2021-08-21 19:22:00,,0826.7,5.00,0.00,29.4,26.4,00.0,38.6,30.9,25.3,0002.3,0021.13,0014.38,0013.51
2021-08-21 19:23:00,,0826.8,4.99,0.00,29.4,26.8,00.0,38.5,31.0,25.6,0002.1,0020.84,0014.40,0013.50
2021-08-21 19:24:00,,0826.7,5.01,0.00,29.4,27.3,00.0,38.5,31.1,25.4,0001.8,0020.80,0014.43,0013.52
2021-08-21 19:25:00,,0826.8,5.00,0.00,29.4,27.6,00.0,38.5,31.2,25.8,0001.6,0020.83,0014.46,0013.51
2021-08-21 19:26:00,,0826.7,5.00,0.00,29.4,27.9,00.0,38.5,31.3,25.2,0001.5,0020.73,0014.48,0013.51
2021-08-21 19:27:00,,0826.7,5.01,0.00,29.5,28.2,00.0,38.5,31.4,25.6,0001.6,0020.66,0014.47,0013.53
2021-08-21 19:28:00,,0826.7,5.00,0.00,29.5,28.4,00.0,38.6,31.4,25.7,0001.7,0020.69,0014.46,0013.55
2021-08-21 19:29:00,,0826.7,4.99,0.00,29.6,28.6,00.0,38.6,31.5,24.9,0001.6,0021.02,0014.44,0013.53
2021-08-21 19:30:00,,0826.7,5.01,0.00,29.6,28.7,00.0,38.6,31.6,24.7,0001.6,0021.51,0014.46,0013.56
2021-08-21 19:31:00,,0826.7,5.01,0.00,29.7,28.9,00.0,38.6,31.7,24.5,0001.7,0022.00,0014.47,0013.57
2021-08-21 19:32:00,,0826.7,5.00,0.00,29.8,29.0,00.0,38.7,31.7,24.8,0001.7,0021.98,0014.44,0013.57
2021-08-21 19:33:00,,0826.6,4.99,0.00,29.8,28.5,00.0,38.7,31.6,25.3,0001.7,0021.91,0014.44,0013.58
2021-08-21 19:34:00,,0826.5,5.00,0.00,29.7,26.6,00.0,38.7,31.1,25.4,0001.8,0021.80,0014.43,0013.59
2021-08-21 19:35:00,,0826.5,5.00,0.00,29.5,25.9,00.0,38.6,30.8,25.8,0002.1,0022.28,0014.40,0013.57
2021-08-21 19:36:00,,0826.6,5.01,0.00,29.4,26.3,00.0,38.6,30.9,25.5,0002.4,0022.63,0014.37,0013.58
2021-08-21 19:37:00,,0826.5,4.99,0.00,29.4,26.7,00.0,38.6,31.0,26.0,0002.4,0022.53,0014.33,0013.57
2021-08-21 19:38:00,,0826.5,5.00,0.00,29.4,27.2,00.0,38.6,31.1,25.7,0002.3,0023.03,0014.32,0013.56
2021-08-21 19:39:00,,0826.5,4.99,0.00,29.4,27.5,00.0,38.5,31.2,26.1,0002.5,0023.12,0014.33,0013.56
2021-08-21 19:40:00,,0826.5,5.01,0.00,29.5,27.9,00.0,38.5,31.3,25.7,0002.4,0022.86,0014.32,0013.58
2021-08-21 19:41:00,,0826.6,4.99,0.00,29.5,28.2,00.0,38.5,31.4,25.7,0002.5,0022.62,0014.34,0013.58
2021-08-21 19:42:00,,0826.6,5.00,0.00,29.6,28.4,00.0,38.6,31.5,25.9,0002.6,0021.81,0014.37,0013.58
2021-08-21 19:43:00,,0826.7,5.01,0.00,29.6,28.6,00.0,38.6,31.5,26.4,0002.5,0022.11,0014.34,0013.55
2021-08-21 19:44:00,,0826.6,4.99,0.00,29.7,28.7,00.0,38.6,31.6,26.5,0002.6,0023.01,0014.34,0013.54
2021-08-21 19:45:00,,0826.6,5.01,0.00,29.7,28.6,00.0,38.6,31.6,25.9,0002.6,0023.15,0014.33,0013.51
2021-08-21 19:46:00,,0826.6,4.99,0.00,29.6,26.9,00.0,38.6,31.1,26.3,0002.4,0022.78,0014.41,0013.53
2021-08-21 19:47:00,,0826.5,5.00,0.00,29.5,25.8,00.0,38.6,30.8,26.1,0002.3,0022.64,0014.46,0013.54
2021-08-21 19:48:00,,0826.5,5.01,0.00,29.4,26.1,00.0,38.6,30.8,26.5,0002.4,0022.91,0014.49,0013.53
2021-08-21 19:49:00,,0826.5,5.00,0.00,29.3,26.5,00.0,38.5,30.9,26.3,0002.4,0022.81,0014.49,0013.52
2021-08-21 19:50:00,,0826.5,5.00,0.00,29.3,27.0,00.0,38.5,31.0,26.3,0002.3,0023.35,0014.45,0013.49
2021-08-21 19:51:00,,0826.5,5.01,0.00,29.4,27.4,00.0,38.5,31.1,25.7,0002.3,0023.32,0014.49,0013.48
2021-08-21 19:52:00,,0826.5,4.99,0.00,29.4,27.7,00.0,38.5,31.2,25.6,0002.2,0022.65,0014.44,0013.47
2021-08-21 19:53:00,,0826.5,4.99,0.00,29.5,28.0,00.0,38.5,31.3,26.4,0002.1,0022.96,0014.36,0013.44
2021-08-21 19:54:00,,0826.4,5.01,0.00,29.5,28.3,00.0,38.5,31.4,25.8,0001.8,0023.07,0014.38,0013.44
2021-08-21 19:55:00,,0826.4,5.00,0.00,29.5,28.5,00.0,38.5,31.5,25.7,0001.6,0022.83,0014.39,0013.41
2021-08-21 19:56:00,,0826.5,5.01,0.00,29.6,28.7,00.0,38.6,31.5,26.1,0001.6,0023.64,0014.41,0013.41
2021-08-21 19:57:00,,0826.5,4.99,0.00,29.7,28.8,00.0,38.6,31.6,26.2,0001.7,0024.21,0014.37,0013.40
2021-08-21 19:58:00,,0826.5,4.99,0.00,29.7,28.9,00.0,38.6,31.7,26.4,0001.7,0024.27,0014.28,0013.36
2021-08-21 19:59:00,,0826.4,5.01,0.00,29.7,27.7,00.0,38.6,31.3,25.9,0001.6,0024.21,0014.28,0013.36
